Starlink 30393

operational
NORAD ID: 57866 Int'l Des: 2023-144 Owner: SPXS Country: US Constellation: starlink
LEOCIRCULAR

About Starlink 30393

Description loading...

Live Position

Loading 3D Globe...

Upcoming Passes

Altitude History

Altitude vs Time

uPlot chart will show altitude changes over time

Two-Line Element Set

1 57866U 23144C 26035.24454523 -.00000801 00000-0 -44199-4 0 9993
2 57866 43.0013 108.8598 0001086 269.3556 90.7162 15.02546393132543
Epoch: Feb 4, 2026 • Age: 14 hours

Current Status

Altitude 558.7 km
Velocity 7.58 km/s
Sub-Earth Point 1.50°N, 142.08°W
Launch Date Sep 16, 2023
Age 2.3 years
Type internet

Technical Details

Classification Payload
Mass 730.00 kg
Dry Mass 700.00 kg
Total Mass 730.00 kg
Length 0.30 m
Diameter 4.10 m
Span 29.00 m
Shape Box + pan
Manufacturer SPXS
Bus Type Starlink V2M
Phase Status In Orbit
Owner/State SPXS/US

Large Constellations

Loading constellations...